Погода в Джанхоте

Россия / Краснодарский край     44°27′58″N   38°09′39″E
темп.,
°C
ветер,
м/с
пор.,
м/с
влажн.,
%
обл.,
%
осадки,
мм/ч
давл.,
гПа
погр.,
м
15 апреля, чт
чт1500:00+6в23845 0.0 101852
03:00+6в23875 0.0 101755
06:00+7вюв2384100 0.0 101761
09:00+12юв245998 0.0 1018350
12:00+15ююз355151 0.0 1017761
15:00+14юз245442 0.0 1018636
18:00+12зюз227344 0.0 1018249
21:00+8ссз11936 0.0 101915
16 апреля, пт
пт1600:00+8зсз1183100 0.0 101814
03:00+7с1171100 0.0 101816
06:00+7ссз1169100 0.0 101818
09:00+8зсз3685100 0.4 1020307
12:00+9св2391100 1.3 1020173
15:00+10сз018249 1.7 1020287
18:00+10зсз238798 0.0 1020338
21:00+6сз22958 0.0 102126
17 апреля, сб
сб1700:00+6сз2295100 0.0 102136
03:00+6ссз1189100 0.0 102222
06:00+5с1187100 0.0 102216
09:00+10ююз1161100 0.0 1023429
12:00+11зюз2152100 0.0 1023650
15:00+14з1145100 0.0 1022789
18:00+11з116033 0.0 102271
21:00+7св2289100 0.0 102225
18 апреля, вс
вс1800:00+9св2283100 0.0 102039
03:00+9св2286100 0.0 101960
06:00+8ссв2392100 0.4 101772
09:00+9св3396100 3.6 101693
12:00+13всв1184100 0.1 1016177
15:00+16ююв127862 0.6 1015419
18:00+16св01828 0.0 101586
21:00+10св229741 0.0 101652
19 апреля, пн
пн1900:00+10всв2297100 0.0 101635
03:00+10всв1197100 0.0 101621
06:00+11св1197100 0.0 101621
09:00+12св2395100 1.6 101471
12:00+18вюв4773100 0.0 1013748
15:00+18юв51166100 0.0 1011629
18:00+16всв2377100 0.0 100972
21:00+15св4787100 0.2 1007151